Crane Lake, MN

12:47 PM CDT on June 22, 2017 (GMT -0500)
Crane Lake

Weather History for KCDD - April, 2012

Change the Weather History Date:

Wednesday, April 25, 2012

  Actual Average Record
Temperature  
Mean Temperature 44 °F -  
Max Temperature 51 °F 54 °F 73 °F (1999)
Min Temperature 37 °F 28 °F 19 °F (2013)
Degree Days  
Heating Degree Days 21    
Moisture  
Dew Point 40 °F    
Average Humidity 90    
Maximum Humidity 100    
Minimum Humidity 62    
Precipitation  
Precipitation 0.17 in - - ()
Sea Level Pressure  
Sea Level Pressure 29.74 in    
Wind  
Wind Speed 1 mph (North)    
Max Wind Speed 13 mph    
Max Gust Speed 23 mph    
Visibility 9 miles    
Events Rain    
Averages and records for this station are not official NWS values.
T = Trace of Precipitation, MM = Missing Value Source: NWS Daily Summary

Daily Weather History Graph

Daily Weather History Graph

Search for Another Location

Airport or City:

Trip Planner

Search our weather history database for the weather conditions in past years. The results will help you decide how hot, cold, wet, or windy it might be!

Date:

Astronomy

Apr. 25, 2012 Rise Set
Actual Time 6:00 AM CDT 8:16 PM CDT
Civil Twilight 5:26 AM CDT 8:50 PM CDT
Nautical Twilight 4:43 AM CDT 9:33 PM CDT
Astronomical Twilight 3:55 AM CDT 10:21 PM CDT
Moon 8:33 AM CDT (4/25) No Moon Set
Length of Visible Light 15h 23m
Length of Day
14h 15m
Waxing Crescent, 17% of the Moon is Illuminated
Apr 25
Waxing Crescent
Apr 29
First Quarter
May 5
Full
May 12
Last Quarter
May 20
New

Hourly Weather History & Observations

Time (CDT) Temp. Windchill Dew Point Humidity Pressure Visibility Wind Dir Wind Speed Gust Speed Precip Events Conditions
12:14 AM 41.0 °F - 39.2 °F 93% 29.71 in 10.0 mi Calm Calm - N/A   Light Drizzle
12:33 AM 42.8 °F - 39.2 °F 87% 29.70 in 10.0 mi Calm Calm - N/A   Light Drizzle
12:53 AM 41.0 °F - 39.2 °F 93% 29.70 in 10.0 mi Calm Calm - N/A   Scattered Clouds
1:13 AM 41.0 °F - 39.2 °F 93% 29.70 in 10.0 mi Calm Calm - N/A   Clear
1:33 AM 39.2 °F - 39.2 °F 100% 29.70 in 10.0 mi Calm Calm - N/A   Scattered Clouds
1:53 AM 39.2 °F - 39.2 °F 100% 29.69 in 10.0 mi Calm Calm - N/A   Scattered Clouds
2:13 AM 39.2 °F - 39.2 °F 100% 29.70 in 10.0 mi Calm Calm - N/A   Scattered Clouds
2:54 AM 39.2 °F - 39.2 °F 100% 29.70 in 10.0 mi Calm Calm - N/A   Scattered Clouds
3:13 AM 39.2 °F - 37.4 °F 93% 29.70 in 7.0 mi Calm Calm - N/A   Scattered Clouds
3:33 AM 39.2 °F - 37.4 °F 93% 29.70 in 10.0 mi Calm Calm - N/A   Scattered Clouds
3:53 AM 39.2 °F - 37.4 °F 93% 29.70 in 10.0 mi Calm Calm - N/A   Scattered Clouds
4:33 AM 39.2 °F - 37.4 °F 93% 29.69 in 10.0 mi Calm Calm - N/A   Scattered Clouds
4:53 AM 39.2 °F - 37.4 °F 93% 29.69 in 7.0 mi Calm Calm - N/A   Scattered Clouds
5:13 AM 37.4 °F - 37.4 °F 100% 29.69 in 7.0 mi Calm Calm - N/A   Scattered Clouds
5:33 AM 39.2 °F - 37.4 °F 93% 29.69 in 10.0 mi Calm Calm - N/A   Scattered Clouds
5:54 AM 39.2 °F - 37.4 °F 93% 29.69 in 10.0 mi Calm Calm - N/A   Scattered Clouds
6:13 AM 39.2 °F - 37.4 °F 93% 29.70 in 10.0 mi Calm Calm - N/A   Scattered Clouds
6:34 AM 39.2 °F - 37.4 °F 93% 29.69 in 7.0 mi Calm Calm - N/A   Light Drizzle
6:53 AM 39.2 °F - 39.2 °F 100% 29.71 in 10.0 mi Calm Calm - N/A   Mostly Cloudy
7:14 AM 39.2 °F - 39.2 °F 100% 29.70 in 10.0 mi Calm Calm - N/A   Scattered Clouds
7:33 AM 39.2 °F - 39.2 °F 100% 29.70 in 10.0 mi Calm Calm - N/A   Scattered Clouds
7:53 AM 41.0 °F - 41.0 °F 100% 29.70 in 10.0 mi Calm Calm - N/A   Light Drizzle
8:14 AM 42.8 °F - 42.8 °F 100% 29.70 in 10.0 mi Calm Calm - N/A   Light Drizzle
8:33 AM 42.8 °F - 41.0 °F 93% 29.70 in 10.0 mi Calm Calm - N/A   Scattered Clouds
8:53 AM 44.6 °F - 41.0 °F 87% 29.69 in 10.0 mi Calm Calm - N/A   Scattered Clouds
9:14 AM 44.6 °F - 39.2 °F 81% 29.68 in 10.0 mi Calm Calm - N/A   Clear
9:33 AM 46.4 °F - 39.2 °F 76% 29.69 in 10.0 mi Calm Calm - N/A   Clear
9:54 AM 48.2 °F - 39.2 °F 71% 29.69 in 10.0 mi South 4.6 mph - N/A   Clear
10:13 AM 48.2 °F - 39.2 °F 71% 29.69 in 10.0 mi SE 3.5 mph - N/A   Clear
10:34 AM 48.2 °F - 39.2 °F 71% 29.69 in 10.0 mi SSE 3.5 mph - N/A   Scattered Clouds
10:53 AM 50.0 °F - 37.4 °F 62% 29.68 in 10.0 mi SE 3.5 mph - N/A Rain Light Rain
11:13 AM 51.8 °F - 39.2 °F 62% 29.68 in 10.0 mi SE 3.5 mph - N/A Rain Light Rain
11:33 AM 51.8 °F - 39.2 °F 62% 29.69 in 10.0 mi ESE 3.5 mph - N/A Rain Light Rain
11:53 AM 51.8 °F - 39.2 °F 62% 29.69 in 10.0 mi Calm Calm - N/A   Scattered Clouds
12:13 PM 51.8 °F - 39.2 °F 62% 29.69 in 10.0 mi South 4.6 mph - N/A Rain Light Rain
12:34 PM 48.2 °F - 42.8 °F 82% 29.69 in 10.0 mi South 3.5 mph - 0.01 in Rain Light Rain
12:54 PM 48.2 °F - 42.8 °F 82% 29.70 in 10.0 mi Calm Calm - 0.01 in Rain Light Rain
1:13 PM 48.2 °F - 42.8 °F 82% 29.70 in 10.0 mi Calm Calm - N/A Rain Light Rain
1:34 PM 48.2 °F - 42.8 °F 82% 29.70 in 10.0 mi Calm Calm - N/A Rain Light Rain
2:13 PM 48.2 °F - 42.8 °F 82% 29.73 in 5.0 mi Calm Calm - 0.04 in Rain Heavy Rain
2:33 PM 46.4 °F - 44.6 °F 93% 29.72 in 4.0 mi Calm Calm - 0.11 in Rain Rain
2:53 PM 44.6 °F - 44.6 °F 100% 29.72 in 10.0 mi Calm Calm - 0.12 in   Drizzle
3:13 PM 44.6 °F - 42.8 °F 93% 29.72 in 4.0 mi Calm Calm - 0.01 in Rain Light Rain
3:34 PM 44.6 °F - 42.8 °F 93% - 3.0 mi Calm Calm - 0.02 in   Drizzle
4:14 PM 42.8 °F - 42.8 °F 100% 29.73 in 3.0 mi Calm Calm - 0.02 in Rain Light Rain
4:33 PM 42.8 °F - 42.8 °F 100% 29.73 in 10.0 mi Calm Calm - 0.02 in   Light Drizzle
4:53 PM 42.8 °F - 41.0 °F 93% 29.75 in 10.0 mi Calm Calm - 0.02 in   Drizzle
5:13 PM 42.8 °F - 41.0 °F 93% 29.75 in 10.0 mi Calm Calm - N/A   Light Drizzle
5:33 PM 42.8 °F - 41.0 °F 93% 29.76 in 10.0 mi Calm Calm - N/A   Mostly Cloudy
5:53 PM 42.8 °F - 41.0 °F 93% 29.76 in 10.0 mi Calm Calm - N/A   Scattered Clouds
6:13 PM 42.8 °F - 41.0 °F 93% 29.77 in 10.0 mi Calm Calm - N/A   Scattered Clouds
6:33 PM 42.8 °F 41.1 °F 41.0 °F 93% 29.77 in 10.0 mi North 3.5 mph - N/A   Mostly Cloudy
6:53 PM 42.8 °F - 41.0 °F 93% 29.78 in 10.0 mi Calm Calm - N/A   Mostly Cloudy
7:14 PM 42.8 °F - 41.0 °F 93% 29.78 in 10.0 mi Calm Calm - N/A   Mostly Cloudy
7:33 PM 42.8 °F 41.1 °F 41.0 °F 93% 29.79 in 10.0 mi NNW 3.5 mph - N/A   Overcast
7:54 PM 42.8 °F 39.3 °F 41.0 °F 93% 29.80 in 10.0 mi NNW 5.8 mph - N/A   Overcast
8:14 PM 42.8 °F 40.1 °F 41.0 °F 93% 29.80 in 10.0 mi North 4.6 mph - N/A   Overcast
8:34 PM 42.8 °F 39.3 °F 41.0 °F 93% 29.81 in 10.0 mi NNW 5.8 mph - N/A   Mostly Cloudy
8:53 PM 42.8 °F 41.1 °F 39.2 °F 87% 29.82 in 10.0 mi NNW 3.5 mph - N/A   Mostly Cloudy
9:13 PM 42.8 °F - 39.2 °F 87% 29.82 in 10.0 mi Calm Calm - N/A   Scattered Clouds
9:33 PM 41.0 °F - 39.2 °F 93% 29.83 in 10.0 mi Calm Calm - N/A   Scattered Clouds
9:53 PM 39.2 °F - 37.4 °F 93% 29.84 in 7.0 mi Calm Calm - N/A   Scattered Clouds
10:13 PM 37.4 °F - 37.4 °F 100% 29.85 in 4.0 mi Calm Calm - N/A   Scattered Clouds
10:33 PM 37.4 °F - 37.4 °F 100% 29.85 in 7.0 mi Calm Calm - N/A   Scattered Clouds
10:53 PM 41.0 °F 33.9 °F 39.2 °F 93% 29.86 in 7.0 mi NNW 12.7 mph 16.1 mph N/A Rain Light Rain
11:13 PM 39.2 °F 32.5 °F 39.2 °F 100% 29.88 in 3.0 mi NNW 10.4 mph 19.6 mph N/A   Drizzle
11:33 PM 37.4 °F 30.8 °F 35.6 °F 93% 29.90 in 10.0 mi NNW 9.2 mph 23.0 mph N/A   Light Drizzle
11:54 PM 37.4 °F 30.8 °F 35.6 °F 93% 29.92 in 10.0 mi North 9.2 mph 20.7 mph N/A   Overcast